Regional Weather Roundup
Issued by NWS Charleston, SC

Home | Current Version | Previous Version | Text Only | Print | Product List | Glossary On
Versions: 1 2 3 4 5 6 7 8 9 10 11 12 13 14 15 16 17 18 19 20 21 22 23 24 25 26 27 28 29 30 31 32 33 34 35 36 37 38 39 40 41 42 43 44 45 46 47 48 49 50
000
ASUS42 KCHS 222225
RWRCHS

REGIONAL WEATHER ROUNDUP
NATIONAL WEATHER SERVICE CHARLESTON SC
500 PM EST MON DEC 22 2014

NOTE: "FAIR" INDICATES FEW OR NO CLOUDS BELOW 12,000 FEET WITH NO
SIGNIFICANT WEATHER AND/OR OBSTRUCTIONS TO VISIBILITY.

NOT ALL STATIONS ARE QUALITY CONTROLLED BY THE NATIONAL
WEATHER SERVICE. USE DATA WITH CAUTION...ESPECIALLY
DEWPOINT OBSERVATIONS.

SCZ027-030-031-034>040-042>050-222300-
...SOUTHEAST SOUTH CAROLINA...

CITY           SKY/WX    TMP DP  RH WIND       PRES   REMARKS
N CHARLESTON   LGT RAIN  48  46  93 N5        30.02R
WATERFRONT PRK   N/A     50 N/A N/A E5          N/A
MOUNT PLEASANT CLOUDY    48  48 100 N6        30.00R
PINOPOLIS        N/A     46  45  93 VRB3      29.92
MONCKS CORNER  CLOUDY    46  45  93 CALM      30.01S
SUMMERVILLE    CLOUDY    45  45 100 N3        30.01F
BEAUFORT MCAS  LGT RAIN  49  47  93 NE8       29.97S FOG
BEAUFORT ARPT  DRIZZLE   50  50 100 NE10      29.96F
HILTON HEAD IS CLOUDY    54  54 100 N8        29.95F
WALTERBORO     CLOUDY    46 N/A N/A CALM      30.00S
ALLENDALE      CLOUDY    46  46 100 N6        29.99R

...SOUTHERN MIDLANDS AND PEE DEE...

CITY           SKY/WX    TMP DP  RH WIND       PRES   REMARKS
GEORGETOWN     NOT AVBL
KINGSTREE      NOT AVBL
ORANGEBURG     CLOUDY    45  42  89 NE6       30.00S FOG
BARNWELL       CLOUDY    46  46 100 NE6       30.00R
AIKEN          DRIZZLE   45  45 100 E3        30.03R
MANNING        CLOUDY    45 N/A N/A N5        30.03R
COLUMBIA       LGT RAIN  45  43  93 NE6       30.01S
SUMTER         CLOUDY    44  42  95 NE8       30.00R
FLORENCE       CLOUDY    44  42  93 N8        30.02R FOG
MYRTLE BEACH   LGT RAIN  46  43  87 NE12      29.98S FOG
N MYRTLE BEACH LGT RAIN  46  44  93 NE9       29.98R FOG

$$

GAZ063-065-086>088-099>101-113>116-118-119-134>141-150-222300-
...SOUTHEAST GEORGIA...

CITY           SKY/WX    TMP DP  RH WIND       PRES   REMARKS
SAVANNAH ARPT  FOG       50  49  96 NE5       29.95S VSB 3/4
HUNTER AAF     CLOUDY    54  54 100 N6        29.92S FOG
FORT STEWART   CLOUDY    54  52  95 N6        29.92R
STATESBORO     CLOUDY    47  47 100 NE3       29.96S
SYLVANIA       CLOUDY    47  47 100 NE7       29.97F
CLAXTON        CLOUDY    48  48 100 NE3       29.95R

...CSRA...CENTRAL AND FAR SOUTHEAST GEORGIA...

CITY           SKY/WX    TMP DP  RH WIND       PRES   REMARKS
THOMSON        CLOUDY    46  46 100 E6        30.03R
AUGUSTA-BUSH   LGT RAIN  47  45  93 NE6       30.00R
AUGUSTA-DANIEL LGT RAIN  47  45  93 NE7       29.97S
SWAINSBORO     CLOUDY   N/A N/A N/A E9        29.95F FOG
VIDALIA        CLOUDY    48  48 100 NE8       29.94S
EASTMAN        CLOUDY    51  51 100 E6        29.95R FOG
HAZLEHURST     FOG       53  53 100 E6        29.91F VSB 1/2
ALMA           CLOUDY    54  52  93 E5        29.91S
WAYCROSS       CLOUDY    57  57  99 NE6       29.92S
JESUP          CLOUDY    55  55 100 CALM      29.94R
BAXLEY         FOG       54  54 100 NE5       29.92F VSB 1/2
BRUNSWICK      CLOUDY    54  54 100 E6        29.93R
SAINT SIMONS   HVY RAIN  56  55  97 NE6       29.93R FOG

$$

SCZ027-028-034-036>038-045-046-048>050-GAZ119-141-222300-
...LAKE AND SUPPLEMENTAL COASTAL OBSERVATIONS...

STATION/POSITION TIME  TEMP    WIND        PRES    WAVE   SWELL
                       AIR SEA DIR/SP/G            HT/PER HT/PER/DIR
                 (UTC) (F)     (DEG/KT/KT) (MB)    (FT/S) (FT/S/D)
UPR LAKE MARION  NOT AVBL
WINYAH BAY       2200   47     100/  5     1014.0S
LAKE MURRAY      2100   43      30/  3/  7 1015.2F
ACE BASIN NERRS  2200   48      30/  1     1015.0S
FORT PULASKI     2200   56 55   60/  7/  8 1014.0R
SAPELO ISLAND    2200   54      40/  8     1013.0S

$$

ANZ835-935-AMZ111-154-330-350-352-354-370-450-454-472-222300-
...C-MAN AND BUOY OBSERVATIONS...

STATION/POSITION TIME  TEMP    WIND        PRES    WAVE   SWELL
                       AIR SEA DIR/SP/G            HT/PER HT/PER/DIR
                 (UTC) (F)     (DEG/KT/KT) (MB)    (FT/S) (FT/S/D)
BUOY 41004       2200   60 73   10/ 14/ 17 1015.2R   4/ 9   2/ 9
BUOY 41008       2200   56 59   70/ 17/ 19 1012.6F   4/ 5   2/ 70/ 7
FOLLY BEACH CMAN 2200   51      90/  7/  8 1015.5R
CAPERS NEARSHORE 2100   49      70/  8/ 10   N/A
FRIPP NEARSHORE  NOT AVBL


STATION/POSITION TIME  TEMP    WIND        PRES    WAVE   SWELL
                       AIR SEA DIR/SP/G            HT/PER HT/PER/DIR
                 (UTC) (F)     (DEG/KT/KT) (MB)    (FT/S) (FT/S/D)
5E ST. MARYS GA  2200      61                N/A     3/ 8
FRYING PAN BUOY  2200   55 68  360/ 12/ 16 1016.2R   4/ 8   3/ 90/ 8
BUOY 41025       2200   69                 1014.0R   8/ 9
CAPE LOOKOUT NC  2200   51     320/  8/ 10 1015.7R
BUOY 41002       2108   73 72  240/ 12/ 14 1015.8R   5/ 6   3/210/ 6
BUOY 41010       2200   76 77  190/ 14/ 17 1014.7F   4/ 9   3/ 40/ 9
ST AUGUSTINE FL  2200   65     180/ 12/ 13 1012.9R


$$



USA.gov is the U.S. government's official web portal to all federal, state and local government web resources and services.